Hourly Data Report for April 06, 2018

TORONTO CITY
ONTARIO
Current Station Operator: ECCC - MSC

43°40'00.000" N
79°24'00.000" W
112.50 m
6158355
71508
XTO

Download Data

Hourly Data (April 2018)
Hourly Data Report for April 6, 2018
TIME
LST
Temp Definition
°C
Dew Point Definition
°C
Rel Hum Definition
%
Precip. Amount Definition
mm

Wind Dir Definition
10's deg

Wind Spd Definition
km/h
Visibility Definition
km
Stn Press Definition
kPa
Hmdx Definition


Wind Chill Definition


Weather Definition


00:00 0.5 -8.4 51 0.0 LegendMM LegendMM   100.19     LegendNANA
01:00 0.3 -5.7 64 0.0 LegendMM LegendMM   100.13     LegendNANA
02:00 0.1 -4.5 71 0.0 LegendMM LegendMM   100.05     LegendNANA
03:00 -0.1 -4.7 71 0.0 LegendMM LegendMM   99.95     LegendNANA
04:00 0.5 -4.0 72 0.0 LegendMM LegendMM   99.85     LegendNANA
05:00 -0.3 -4.5 73 0.0 LegendMM LegendMM   99.72     LegendNANA
06:00 -0.2 -3.5 78 0.0 LegendMM LegendMM   99.62     LegendNANA
07:00 1.4 -2.0 78 0.0 LegendMM LegendMM   99.59     LegendNANA
08:00 0.8 -3.0 76 0.0 LegendMM LegendMM   99.50     LegendNANA
09:00 0.7 -1.6 85 0.2 LegendMM LegendMM   99.35     LegendNANA
10:00 0.6 -1.5 86 0.2 LegendMM LegendMM   99.24     LegendNANA
11:00 0.4 -1.1 90 0.5 LegendMM LegendMM   99.15     LegendNANA
12:00 0.5 -1.2 89 0.2 LegendMM LegendMM   99.05     LegendNANA
13:00 0.9 -0.8 88 0.0 LegendMM LegendMM   98.98     LegendNANA
14:00 1.3 -0.7 86 0.0 LegendMM LegendMM   98.96     LegendNANA
15:00 2.8 0.4 84 0.0 LegendMM LegendMM   98.93     LegendNANA
16:00 5.2 -2.3 58 0.0 LegendMM LegendMM   98.92     LegendNANA
17:00 2.8 -1.0 76 0.0 LegendMM LegendMM   99.00     LegendNANA
18:00 2.6 -4.0 62 0.0 LegendMM LegendMM   99.09     LegendNANA
19:00 1.2 -4.2 68 0.0 LegendMM LegendMM   99.20     LegendNANA
20:00 0.4 -6.4 60 0.2 LegendMM LegendMM   99.34     LegendNANA
21:00 -0.3 -6.8 62 0.0 LegendMM LegendMM   99.45     LegendNANA
22:00 -0.8 -7.1 62 0.0 LegendMM LegendMM   99.53     LegendNANA
23:00 -1.5 -8.8 57 0.0 LegendMM LegendMM   99.61     LegendNANA

Notes on Data Quality.

Legend

  • E = Estimated
  • M = Missing
  • NA = Not Available*
  • [empty] = Indicates an unobserved value
Date modified: